Vorticity
21 9 23 61 42 57 24 6 -14 -1 20 0 7 9 8 7 13 17 6 12 15 6 4 3 -0 3 5 5 8 2 6 1 5 14 12 11 13 9 18 17 12 16 15 17 19 18 15 14 14 11 11 10 11 14
19 6 39 57 76 21 24 12 16 -4 18 -17 -5 1 2 4 21 7 3 12 11 10 6 2 2 0 4 3 6 5 5 6 4 6 5 5 7 4 5 7 6 7 14 8 11 7 6 6 5 4 3 2 3 3
13 14 61 55 46 12 14 9 -7 17 23 -9 10 -4 4 5 18 9 5 12 10 12 2 4 4 3 5 3 4 5 3 3 4 3 3 4 6 4 4 2 5 4 4 7 5 2 4 4 4 3 4 4 5 5
5 21 79 61 17 13 8 21 16 10 3 1 1 -0 6 31 17 4 5 12 3 4 5 1 3 3 2 7 4 3 6 3 6 5 5 5 6 7 6 7 8 6 7 7 7 7 7 5 6 6 7 5 5 7
2 33 73 62 21 -6 -12 10 -3 7 5 7 7 15 -3 34 4 5 6 11 9 4 4 4 4 3 5 5 4 4 6 5 4 5 5 7 6 7 7 8 7 8 8 7 6 6 8 8 7 8 9 9 8 9
5 53 72 41 8 -8 -9 -11 -4 0 0 -10 15 8 11 24 3 6 7 9 7 8 6 6 4 4 6 4 6 6 6 7 8 8 7 7 6 8 7 8 8 6 5 5 6 8 8 8 8 9 9 8 8 10
9 78 61 22 10 0 15 -1 8 -9 -8 3 1 9 10 24 5 9 9 10 8 3 9 6 5 4 3 3 9 6 6 5 8 6 7 8 5 8 7 4 10 7 7 7 8 8 8 10 9 10 8 7 6 5
17 85 40 3 10 -2 -8 7 -0 9 5 1 6 12 14 30 5 7 8 7 7 5 7 7 4 12 5 8 7 6 6 7 4 5 8 6 5 7 7 9 8 10 9 7 8 8 10 9 9 9 6 5 6 8
21 71 31 9 -1 -16 3 5 11 8 2 1 10 15 18 23 4 6 5 6 6 4 3 5 10 7 7 5 7 10 7 7 6 6 8 10 6 6 10 8 9 9 7 8 5 8 7 9 8 4 8 6 6 10
14 53 52 25 13 7 -2 9 9 -3 2 4 5 9 15 21 0 4 6 6 4 7 3 8 10 9 9 9 5 9 7 6 5 4 7 9 7 6 9 10 10 7 8 5 7 7 9 5 3 4 6 7 7 8
8 36 82 11 -1 3 13 3 1 0 7 -5 8 4 15 25 17 2 3 1 5 1 5 10 4 4 7 7 8 7 4 4 8 3 6 9 6 9 9 7 8 9 6 5 7 7 6 3 3 4 6 8 9 7
19 11 85 35 11 11 5 3 1 5 3 6 4 8 10 26 13 9 6 3 -0 12 11 7 3 11 6 9 7 3 7 9 10 7 7 9 7 9 9 8 8 9 4 5 6 6 3 3 3 3 6 5 3 14
11 3 97 45 7 13 -2 3 0 7 15 -2 7 -1 12 31 19 5 1 5 16 11 8 6 5 1 9 6 6 9 6 10 9 7 6 9 9 9 9 9 9 7 4 3 5 3 1 3 2 4 4 4 13 7
6 9 68 63 11 -2 -3 2 5 15 7 8 4 -3 12 20 21 10 20 11 8 7 2 7 2 9 5 4 5 6 5 10 9 7 8 10 8 8 9 10 10 7 5 3 5 2 1 2 0 4 5 8 10 13
2 19 -1 70 28 4 7 7 4 6 -6 -1 3 6 7 9 10 20 11 11 2 7 -4 7 3 7 1 6 4 9 8 8 10 9 10 7 6 7 9 9 10 6 4 4 4 2 3 2 1 4 5 12 10 25
7 -7 -1 119 27 4 8 3 6 -2 4 1 3 2 10 7 5 19 22 9 6 -1 4 1 6 9 10 6 9 7 7 8 8 10 9 8 6 7 9 9 9 6 3 4 3 1 6 1 4 2 11 9 21 21
3 7 -3 129 22 8 -2 -2 -5 -2 6 6 -2 0 12 14 18 20 18 9 9 6 -2 2 9 8 8 8 13 6 6 9 9 9 9 6 6 8 10 9 9 6 4 5 1 6 2 5 7 7 6 19 24 36
-4 -1 14 119 15 13 10 9 7 2 9 -3 -1 -6 10 11 10 18 16 10 12 4 6 12 6 7 10 8 5 6 7 9 9 9 7 5 7 9 9 9 9 8 6 3 5 4 4 7 3 6 24 5 42 15
6 -2 34 76 18 10 1 7 10 14 2 1 6 -2 -0 12 8 11 9 4 3 9 12 6 6 12 5 4 12 6 7 8 8 7 7 7 7 9 10 12 9 6 4 2 3 2 4 5 6 17 7 29 30 19
29 27 32 50 33 14 5 4 5 7 3 5 13 3 2 8 23 17 14 16 6 7 9 6 8 1 6 10 6 7 6 5 8 8 8 8 8 10 12 8 5 5 1 1 2 1 7 4 11 22 13 34 18 20
31 31 10 41 29 5 10 9 -4 9 -1 3 8 7 2 25 14 13 13 4 2 7 8 5 3 6 8 12 10 6 5 7 8 9 7 8 8 11 8 5 4 3 -1 0 0 5 5 7 25 2 38 25 15 16
7 19 32 30 19 9 19 -4 -8 3 7 12 8 6 18 17 8 8 5 3 6 6 4 4 2 6 13 10 4 5 5 8 9 9 9 6 7 8 9 7 6 3 3 1 4 5 5 12 10 22 38 24 13 15
31 19 47 11 9 7 24 5 -8 6 15 12 6 7 16 7 9 9 5 5 7 5 4 3 6 16 10 2 3 6 5 10 12 8 6 6 7 10 11 9 6 3 2 2 4 7 4 20 7 41 34 20 12 18
20 50 5 2 19 10 15 8 -6 -5 3 9 4 6 11 15 15 10 8 7 1 4 7 7 8 5 3 0 3 5 7 10 8 9 7 7 9 10 12 9 5 3 1 3 7 4 18 4 39 29 33 9 6 15
45 16 -6 12 25 6 8 12 2 4 3 5 3 4 19 14 7 -0 -3 5 7 8 6 6 4 4 0 2 5 5 5 3 9 10 10 9 13 11 8 4 4 2 3 8 4 11 7 36 31 28 22 3 9 7
7 15 4 16 23 12 5 -6 -1 4 -2 9 6 6 15 11 9 12 5 10 11 7 2 -0 2 3 3 3 4 5 -0 5 8 10 9 11 10 8 4 4 2 3 6 8 1 10 31 40 19 32 11 12 13 11
-3 11 17 15 18 13 21 -12 -21 -14 9 14 6 9 13 19 10 5 12 5 1 1 2 4 1 4 4 2 6 2 6 7 8 9 11 10 7 5 5 2 2 5 9 -4 14 23 43 20 32 17 11 8 8 11
11 15 19 22 8 5 4 16 14 19 14 8 11 12 10 6 3 8 10 5 -0 7 7 3 5 5 2 3 3 6 7 8 8 10 9 6 6 5 2 2 7 7 -2 11 21 40 27 28 26 9 9 8 10 15
20 11 7 8 6 17 2 -10 9 12 9 12 12 10 8 9 10 20 9 9 10 8 4 5 2 1 3 5 7 7 7 9 11 9 6 6 5 3 3 8 5 1 9 15 41 31 29 26 8 8 10 12 13 16
11 17 19 7 4 11 15 7 2 13 5 -2 8 19 23 27 4 1 3 2 2 5 4 5 3 3 4 7 3 9 11 11 9 6 6 6 4 3 8 4 3 7 14 38 33 29 24 6 9 12 11 13 18 17
14 10 6 13 19 9 -7 -2 8 15 13 19 22 16 11 7 7 3 0 0 4 5 3 4 3 4 7 8 8 13 12 10 5 7 7 3 3 8 5 3 6 12 34 36 29 23 8 12 10 7 13 17 14 22
13 16 8 8 14 16 6 -0 19 29 12 8 5 5 10 11 12 13 13 9 5 3 1 4 5 8 10 10 12 13 11 5 7 6 2 5 8 2 5 5 12 29 37 32 20 11 13 8 10 9 16 12 16 18
12 12 9 6 -4 -11 22 19 11 7 16 4 8 9 12 12 10 5 1 -1 2 4 5 6 6 6 10 13 14 10 8 7 5 2 6 9 1 4 5 13 23 37 35 21 14 13 8 10 10 14 16 7 9 12
Height
5528 5516 5505 5496 5494 5502 5508 5513 5518 5523 5529 5532 5537 5542 5546 5552 5558 5563 5569 5575 5582 5585 5588 5594 5599 5602 5606 5609 5610 5613 5614 5616 5617 5618 5620 5622 5623 5625 5626 5626 5626 5626 5627 5627 5627 5626 5627 5626 5625 5624 5624 5622 5621 5618
5526 5517 5504 5498 5501 5510 5515 5522 5527 5532 5536 5541 5546 5549 5555 5559 5564 5569 5573 5579 5585 5589 5592 5596 5601 5605 5608 5611 5614 5615 5618 5618 5620 5621 5623 5624 5624 5625 5626 5626 5626 5626 5627 5626 5625 5625 5624 5622 5621 5620 5619 5616 5613 5611
5525 5517 5506 5502 5510 5516 5524 5530 5536 5540 5543 5547 5551 5556 5561 5564 5567 5574 5578 5583 5589 5592 5597 5600 5603 5608 5611 5614 5616 5618 5620 5621 5622 5623 5625 5625 5626 5626 5627 5627 5626 5625 5625 5624 5624 5622 5620 5619 5617 5616 5613 5610 5607 5605
5524 5516 5509 5511 5518 5524 5532 5538 5543 5547 5550 5553 5557 5562 5565 5566 5571 5577 5582 5587 5593 5597 5600 5605 5607 5610 5613 5616 5618 5620 5621 5622 5623 5624 5625 5625 5625 5626 5625 5625 5624 5624 5623 5621 5620 5618 5616 5614 5612 5610 5607 5604 5601 5598
5525 5516 5511 5517 5523 5530 5537 5542 5547 5552 5556 5558 5562 5567 5569 5572 5576 5582 5586 5590 5594 5601 5604 5606 5609 5612 5615 5617 5619 5621 5621 5622 5623 5624 5624 5624 5624 5624 5623 5622 5621 5620 5619 5618 5616 5613 5611 5609 5607 5603 5601 5597 5593 5588
5528 5519 5515 5524 5529 5536 5541 5545 5550 5555 5560 5563 5568 5571 5573 5575 5580 5586 5590 5594 5597 5603 5607 5609 5612 5614 5616 5618 5620 5621 5621 5622 5623 5624 5624 5624 5623 5623 5621 5619 5618 5616 5614 5612 5611 5608 5605 5603 5599 5596 5592 5588 5584 5579
5528 5523 5523 5530 5535 5540 5544 5549 5554 5559 5562 5564 5570 5574 5576 5578 5583 5590 5594 5596 5599 5603 5608 5610 5613 5615 5617 5618 5619 5620 5621 5621 5622 5622 5622 5622 5621 5620 5618 5617 5615 5613 5610 5608 5605 5602 5600 5595 5592 5588 5583 5579 5575 5568
5532 5525 5529 5536 5540 5543 5546 5549 5553 5559 5563 5567 5571 5575 5577 5579 5584 5590 5593 5596 5600 5604 5608 5611 5614 5616 5618 5618 5619 5619 5619 5620 5620 5620 5620 5619 5618 5617 5615 5613 5610 5608 5605 5603 5599 5596 5593 5589 5584 5579 5574 5569 5563 5557
5533 5530 5532 5537 5542 5544 5547 5551 5556 5560 5564 5568 5572 5574 5576 5580 5585 5590 5594 5598 5601 5606 5608 5610 5612 5614 5616 5617 5618 5618 5618 5619 5619 5618 5617 5616 5613 5612 5610 5607 5604 5602 5599 5596 5592 5588 5585 5580 5575 5570 5563 5556 5551 5543
5533 5529 5531 5535 5539 5543 5547 5551 5556 5561 5565 5568 5572 5574 5576 5580 5584 5590 5594 5598 5601 5604 5606 5609 5611 5613 5616 5616 5616 5617 5616 5616 5615 5615 5613 5612 5610 5606 5604 5602 5600 5596 5593 5589 5585 5580 5576 5570 5565 5558 5551 5544 5537 5528
5527 5523 5524 5531 5537 5541 5548 5551 5555 5560 5564 5566 5570 5574 5577 5579 5582 5587 5592 5596 5599 5603 5605 5608 5610 5612 5613 5614 5614 5615 5613 5613 5612 5611 5609 5608 5606 5603 5599 5596 5593 5589 5586 5582 5578 5572 5566 5560 5554 5547 5539 5529 5519 5509
5521 5520 5517 5520 5531 5539 5545 5549 5552 5557 5563 5566 5569 5571 5574 5577 5581 5584 5589 5593 5597 5600 5603 5606 5608 5610 5611 5612 5612 5612 5611 5610 5609 5607 5605 5603 5601 5598 5594 5591 5587 5583 5580 5575 5569 5563 5557 5551 5543 5534 5524 5513 5502 5491
5515 5514 5513 5513 5523 5534 5540 5544 5548 5553 5557 5562 5565 5568 5571 5574 5576 5580 5586 5592 5596 5599 5602 5605 5607 5608 5608 5609 5609 5608 5607 5606 5604 5602 5600 5599 5596 5592 5588 5585 5581 5577 5572 5567 5561 5555 5547 5540 5530 5520 5510 5499 5488 5475
5505 5508 5506 5507 5514 5525 5533 5539 5544 5549 5553 5558 5561 5564 5567 5569 5573 5579 5585 5590 5594 5596 5598 5601 5603 5604 5604 5605 5605 5604 5603 5601 5600 5598 5595 5593 5590 5586 5582 5578 5574 5569 5564 5559 5552 5545 5537 5527 5517 5505 5494 5483 5471 5457
5495 5496 5499 5502 5505 5516 5524 5532 5539 5545 5548 5552 5556 5558 5563 5566 5572 5576 5582 5585 5589 5592 5595 5596 5598 5599 5599 5601 5601 5600 5598 5596 5595 5593 5591 5588 5584 5579 5575 5571 5566 5561 5556 5550 5542 5534 5526 5516 5505 5492 5478 5464 5450 5435
5486 5486 5490 5491 5495 5504 5514 5521 5529 5537 5541 5546 5550 5556 5560 5563 5569 5573 5577 5579 5583 5586 5589 5592 5593 5595 5596 5596 5597 5595 5594 5592 5589 5587 5584 5581 5577 5572 5568 5563 5558 5553 5547 5540 5532 5524 5515 5504 5493 5481 5466 5450 5433 5416
5475 5478 5477 5479 5486 5493 5503 5511 5520 5528 5533 5539 5546 5551 5555 5559 5562 5566 5569 5573 5576 5581 5585 5587 5588 5589 5591 5591 5591 5590 5588 5586 5583 5581 5578 5574 5570 5565 5560 5555 5550 5544 5537 5530 5522 5513 5504 5492 5480 5468 5455 5439 5421 5402
5464 5464 5467 5471 5474 5479 5489 5500 5510 5518 5527 5535 5542 5547 5550 5553 5556 5560 5563 5567 5572 5575 5578 5581 5583 5583 5585 5585 5584 5583 5581 5579 5576 5573 5570 5567 5563 5558 5553 5548 5542 5535 5528 5521 5513 5503 5492 5480 5468 5454 5439 5424 5406 5389
5448 5450 5455 5463 5470 5474 5482 5491 5502 5513 5522 5529 5535 5539 5544 5547 5551 5554 5557 5561 5566 5569 5571 5573 5576 5578 5578 5578 5578 5577 5575 5572 5569 5567 5564 5560 5556 5550 5545 5540 5533 5526 5519 5512 5502 5492 5480 5466 5453 5439 5423 5408 5391 5378
5429 5432 5441 5449 5458 5464 5472 5484 5494 5504 5514 5522 5527 5532 5537 5541 5543 5546 5550 5555 5560 5562 5566 5569 5571 5572 5572 5573 5572 5571 5568 5566 5563 5560 5557 5553 5548 5543 5537 5531 5524 5517 5510 5501 5491 5480 5468 5454 5438 5423 5409 5392 5380 5368
5405 5414 5424 5432 5443 5455 5465 5476 5486 5495 5505 5513 5519 5524 5529 5533 5536 5541 5545 5549 5553 5557 5560 5562 5564 5566 5567 5567 5566 5563 5561 5559 5555 5552 5549 5544 5539 5534 5529 5522 5515 5508 5501 5492 5480 5468 5455 5443 5429 5415 5399 5384 5371 5359
5389 5398 5407 5416 5431 5444 5455 5466 5477 5487 5497 5506 5511 5517 5522 5525 5530 5535 5540 5543 5547 5550 5554 5557 5559 5560 5561 5560 5558 5556 5555 5551 5548 5545 5540 5535 5530 5525 5520 5513 5506 5499 5489 5480 5469 5458 5445 5432 5417 5404 5389 5377 5365 5354
5380 5390 5398 5407 5415 5426 5440 5454 5467 5478 5487 5495 5502 5507 5512 5517 5523 5529 5533 5538 5542 5545 5549 5551 5553 5554 5554 5552 5551 5549 5547 5545 5541 5537 5531 5527 5522 5516 5510 5504 5497 5489 5479 5468 5457 5445 5433 5419 5407 5393 5382 5371 5361 5349
5372 5379 5387 5396 5405 5417 5431 5444 5457 5469 5479 5488 5494 5500 5506 5512 5517 5522 5527 5533 5536 5539 5543 5545 5547 5547 5546 5545 5543 5541 5540 5538 5533 5528 5523 5519 5513 5507 5501 5494 5487 5478 5469 5457 5445 5432 5421 5408 5395 5384 5375 5366 5356 5346
5365 5372 5381 5384 5397 5411 5424 5438 5451 5462 5473 5482 5488 5493 5499 5506 5512 5517 5523 5527 5529 5534 5537 5539 5539 5538 5538 5537 5535 5533 5531 5529 5524 5520 5516 5510 5504 5497 5490 5483 5476 5467 5457 5446 5433 5422 5408 5396 5383 5375 5367 5361 5353 5343
5356 5361 5369 5379 5394 5407 5423 5436 5447 5458 5468 5475 5481 5488 5494 5501 5506 5511 5518 5521 5524 5526 5529 5530 5530 5530 5530 5528 5525 5524 5523 5519 5516 5511 5506 5499 5493 5487 5480 5473 5465 5456 5447 5436 5425 5411 5399 5385 5377 5368 5362 5356 5348 5340
5350 5354 5367 5382 5396 5411 5424 5434 5442 5452 5462 5469 5476 5483 5488 5494 5499 5507 5513 5514 5515 5517 5519 5521 5521 5521 5520 5518 5517 5516 5514 5510 5506 5501 5495 5489 5484 5478 5471 5464 5456 5447 5437 5426 5414 5402 5389 5379 5371 5364 5358 5351 5345 5337
5344 5364 5379 5390 5399 5410 5419 5429 5439 5448 5457 5465 5472 5476 5482 5489 5495 5502 5505 5505 5507 5509 5511 5511 5511 5511 5510 5509 5509 5508 5504 5500 5495 5490 5485 5480 5475 5469 5462 5454 5446 5436 5427 5416 5403 5391 5381 5372 5365 5360 5354 5347 5339 5332
5358 5370 5378 5387 5398 5408 5419 5428 5437 5447 5455 5461 5467 5472 5478 5484 5489 5493 5496 5497 5499 5501 5502 5502 5503 5502 5502 5501 5500 5498 5495 5491 5486 5481 5476 5471 5466 5460 5453 5445 5435 5426 5415 5404 5393 5382 5374 5367 5361 5355 5348 5341 5334 5327
5362 5372 5381 5390 5399 5409 5419 5428 5435 5442 5449 5456 5462 5466 5471 5476 5481 5483 5486 5489 5492 5493 5494 5495 5494 5494 5494 5493 5492 5490 5486 5482 5477 5473 5468 5462 5456 5450 5442 5434 5425 5414 5403 5391 5380 5373 5366 5361 5355 5348 5341 5334 5328 5322
5364 5373 5382 5391 5400 5409 5416 5424 5431 5438 5445 5450 5455 5460 5464 5468 5471 5475 5478 5481 5483 5485 5486 5486 5487 5487 5486 5486 5484 5481 5477 5473 5468 5464 5459 5453 5446 5440 5432 5423 5413 5402 5392 5381 5374 5367 5362 5356 5350 5343 5337 5330 5324 5317
5366 5374 5383 5392 5400 5407 5413 5420 5427 5433 5439 5445 5450 5454 5457 5461 5465 5468 5471 5473 5476 5477 5478 5479 5478 5478 5478 5477 5474 5471 5467 5463 5459 5455 5449 5443 5437 5430 5422 5412 5403 5392 5382 5375 5368 5362 5356 5351 5345 5339 5332 5326 5319 5313
5371 5378 5385 5390 5396 5403 5409 5416 5422 5428 5433 5437 5441 5445 5450 5453 5457 5461 5464 5467 5468 5469 5469 5469 5470 5471 5469 5467 5464 5461 5457 5454 5450 5445 5439 5433 5427 5419 5411 5402 5392 5382 5374 5368 5362 5357 5352 5346 5340 5334 5328 5322 5315 5308